STARLINK-34450

Last updated on Thu Jul 03 2025 00:02:07 GMT+0000 (Coordinated Universal Time)

1 64447U 25130K 25183.58335648 -.00961490 00000+0 -69301-2 0 9998 2 64447 53.1556 179.7839 0001031 63.5550 51.9764 15.75534774 3503
UTC large
Height (km)
Speed (km/s)
/
Latitude / Longitude
Inclination (degrees)
Orbital Period (minutes)
Azimuth
Elevation
Range (km)
Doppler Factor

Next 0 passes for location: London (51.5072 / 0.1276)

Sorry there are no passes over London.